Moorhead, MN

12:45 PM CDT on April 26, 2017 (GMT -0500)
Moorhead Municipal

Weather History for KJKJ - May, 2013

Change the Weather History Date:

Tuesday, May 14, 2013

  Actual Average (KFAR) Record (KFAR)
Temperature  
Mean Temperature 70 °F -  
Max Temperature 86 °F 69 °F 93 °F (1932)
Min Temperature 55 °F 43 °F 20 °F (1888)
Cooling Degree Days 6    
Growing Degree Days 20 (Base 50)    
Moisture  
Dew Point 34 °F    
Average Humidity 34    
Maximum Humidity 82    
Minimum Humidity 4    
Precipitation  
Precipitation 0.02 in - - ()
Sea Level Pressure  
Sea Level Pressure 29.61 in    
Wind  
Wind Speed 14 mph (West)    
Max Wind Speed 37 mph    
Max Gust Speed 64 mph    
Visibility 10 miles    
Events Rain    
Averages and records for this station are not official NWS values.
T = Trace of Precipitation, MM = Missing Value Source: NWS Daily Summary

Daily Weather History Graph

Daily Weather History Graph

Search for Another Location

Airport or City:

Trip Planner

Search our weather history database for the weather conditions in past years. The results will help you decide how hot, cold, wet, or windy it might be!

Date:

Astronomy

May. 14, 2013 Rise Set
Actual Time 5:52 AM CDT 8:54 PM CDT
Civil Twilight 5:16 AM CDT 9:29 PM CDT
Nautical Twilight 4:30 AM CDT 10:16 PM CDT
Astronomical Twilight 3:35 AM CDT 11:12 PM CDT
Moon 9:34 AM CDT (5/14) 12:02 AM CDT (5/14)
Length of Visible Light 16h 13m
Length of Day
15h 01m
Waxing Crescent, 19% of the Moon is Illuminated
May 14
Waxing Crescent
May 17
First Quarter
May 24
Full
May 31
Last Quarter
Jun 8
New

Hourly Weather History & Observations

Time (CDT) Temp. Dew Point Humidity Pressure Visibility Wind Dir Wind Speed Gust Speed Precip Events Conditions
12:14 AM 60.8 °F 32.0 °F 34% 29.64 in 10.0 mi South 3.5 mph - N/A   Clear
12:35 AM 59.0 °F 33.8 °F 39% 29.64 in 10.0 mi South 3.5 mph - N/A   Clear
12:55 AM 60.8 °F 30.2 °F 31% 29.63 in 10.0 mi South 4.6 mph - N/A   Clear
1:14 AM 60.8 °F 30.2 °F 31% 29.63 in 10.0 mi South 5.8 mph - N/A   Clear
1:35 AM 60.8 °F 32.0 °F 34% 29.63 in 10.0 mi South 3.5 mph - N/A   Clear
1:55 AM 59.0 °F 33.8 °F 39% 29.62 in 10.0 mi South 4.6 mph - N/A   Clear
2:15 AM 60.8 °F 30.2 °F 31% 29.62 in 10.0 mi South 6.9 mph - N/A   Clear
2:35 AM 60.8 °F 32.0 °F 34% 29.61 in 10.0 mi SSE 8.1 mph - N/A   Clear
2:54 AM 57.2 °F 35.6 °F 44% 29.61 in 10.0 mi SSE 6.9 mph - N/A   Clear
3:15 AM 57.2 °F 35.6 °F 44% 29.61 in 10.0 mi SSE 8.1 mph - N/A   Clear
3:35 AM 55.4 °F 37.4 °F 51% 29.60 in 10.0 mi SSE 9.2 mph - N/A   Clear
3:54 AM 55.4 °F 39.2 °F 54% 29.59 in 10.0 mi SSE 10.4 mph - N/A   Clear
4:15 AM 57.2 °F 39.2 °F 51% 29.59 in 10.0 mi SSE 8.1 mph - N/A   Clear
4:35 AM 57.2 °F 39.2 °F 51% 29.58 in 10.0 mi South 9.2 mph - N/A   Clear
4:54 AM 57.2 °F 39.2 °F 51% 29.57 in 10.0 mi SSE 8.1 mph - N/A   Clear
5:15 AM 60.8 °F 39.2 °F 45% 29.56 in 10.0 mi South 11.5 mph - N/A   Clear
5:35 AM 59.0 °F 39.2 °F 48% 29.56 in 10.0 mi South 9.2 mph - N/A   Clear
5:54 AM 62.6 °F 39.2 °F 42% 29.52 in 10.0 mi SSE 12.7 mph - N/A   Clear
6:15 AM 64.4 °F 35.6 °F 34% 29.50 in 10.0 mi South 17.3 mph - N/A   Scattered Clouds
6:35 AM 68.0 °F 35.6 °F 30% 29.47 in 10.0 mi SSE 21.9 mph - N/A   Clear
6:55 AM 69.8 °F 33.8 °F 27% 29.63 in 5.0 mi WNW 23.0 mph 64.4 mph N/A   Haze
7:15 AM 62.6 °F 53.6 °F 72% 29.69 in 10.0 mi NNW 26.5 mph 32.2 mph 0.02 in Rain Light Rain
7:35 AM 60.8 °F 55.4 °F 82% 29.65 in 10.0 mi North 21.9 mph 42.6 mph 0.02 in Rain Light Rain
7:55 AM 60.8 °F 53.6 °F 77% 29.60 in 10.0 mi ENE 17.3 mph 25.3 mph 0.02 in Rain Light Rain
8:15 AM 60.8 °F 53.6 °F 77% 29.55 in 10.0 mi East 17.3 mph 23.0 mph N/A   Clear
8:34 AM 62.6 °F 53.6 °F 72% 29.55 in 10.0 mi East 13.8 mph 19.6 mph N/A   Clear
8:55 AM 66.2 °F 53.6 °F 64% 29.54 in 10.0 mi East 13.8 mph - N/A   Clear
9:15 AM 68.0 °F 50.0 °F 52% 29.54 in 10.0 mi ESE 18.4 mph 21.9 mph N/A   Clear
9:34 AM 69.8 °F 46.4 °F 43% 29.52 in 10.0 mi ESE 18.4 mph 23.0 mph N/A   Clear
9:55 AM 71.6 °F 46.4 °F 41% 29.52 in 10.0 mi SE 19.6 mph 26.5 mph N/A   Clear
10:15 AM 73.4 °F 42.8 °F 33% 29.51 in 10.0 mi SE 16.1 mph 25.3 mph N/A   Clear
10:34 AM 77.0 °F 39.2 °F 26% 29.51 in 10.0 mi SSE 17.3 mph 24.2 mph N/A   Clear
10:55 AM 78.8 °F 35.6 °F 21% 29.51 in 10.0 mi SSE 15.0 mph - N/A   Clear
11:15 AM 80.6 °F 35.6 °F 20% 29.51 in 10.0 mi SSE 17.3 mph 20.7 mph N/A   Clear
11:34 AM 82.4 °F 35.6 °F 19% 29.52 in 10.0 mi South 9.2 mph - N/A   Clear
11:55 AM 84.2 °F 30.2 °F 14% 29.52 in 10.0 mi SW 15.0 mph 20.7 mph N/A   Clear
12:15 PM 84.2 °F 28.4 °F 13% 29.52 in 10.0 mi West 16.1 mph 21.9 mph N/A   Clear
12:35 PM 86.0 °F 30.2 °F 13% 29.52 in 10.0 mi West 17.3 mph 28.8 mph N/A   Clear
12:55 PM 86.0 °F 33.8 °F 15% 29.53 in 10.0 mi WNW 29.9 mph 34.5 mph N/A   Clear
1:14 PM 86.0 °F 39.2 °F 19% 29.53 in 10.0 mi WNW 27.6 mph 33.4 mph N/A   Clear
1:35 PM 84.2 °F 42.8 °F 23% 29.53 in 10.0 mi West 27.6 mph 38.0 mph N/A   Clear
1:55 PM 84.2 °F 41.0 °F 22% 29.53 in 10.0 mi West 27.6 mph 36.8 mph N/A   Clear
2:14 PM 84.2 °F 44.6 °F 25% 29.54 in 10.0 mi West 29.9 mph 34.5 mph N/A   Clear
2:35 PM 84.2 °F 12.2 °F 7% 29.54 in 10.0 mi WNW 33.4 mph 39.1 mph N/A   Clear
2:55 PM 84.2 °F -54.4 °F 4% 29.55 in 10.0 mi WNW 29.9 mph 36.8 mph N/A   Clear
3:14 PM 84.2 °F -9.4 °F 4% 29.56 in 10.0 mi WNW 33.4 mph 40.3 mph N/A   Clear
3:35 PM 82.4 °F -7.6 °F 4% 29.57 in 10.0 mi WNW 28.8 mph 42.6 mph N/A   Clear
3:54 PM 82.4 °F -7.6 °F 4% 29.58 in 10.0 mi WNW 31.1 mph 40.3 mph N/A   Clear
4:15 PM 82.4 °F 3.2 °F 5% 29.58 in 10.0 mi WNW 33.4 mph 43.7 mph N/A   Clear
4:35 PM 80.6 °F 8.6 °F 6% 29.58 in 10.0 mi WNW 29.9 mph 43.7 mph N/A   Clear
4:54 PM 80.6 °F 17.6 °F 10% 29.58 in 10.0 mi WNW 33.4 mph 43.7 mph N/A   Clear
5:15 PM 80.6 °F 24.8 °F 13% 29.60 in 10.0 mi WNW 31.1 mph 43.7 mph N/A   Clear
5:35 PM 78.8 °F 26.6 °F 15% 29.61 in 10.0 mi WNW 35.7 mph 40.3 mph N/A   Clear
5:54 PM 78.8 °F 30.2 °F 17% 29.62 in 10.0 mi WNW 36.8 mph 42.6 mph N/A   Scattered Clouds
6:15 PM 77.0 °F 32.0 °F 19% 29.63 in 10.0 mi WNW 36.8 mph 40.3 mph N/A   Scattered Clouds
6:35 PM 75.2 °F 32.0 °F 21% 29.64 in 10.0 mi NW 27.6 mph 38.0 mph N/A   Clear
6:54 PM 73.4 °F 33.8 °F 23% 29.64 in 10.0 mi NNW 29.9 mph 33.4 mph N/A   Clear
7:15 PM 71.6 °F 35.6 °F 27% 29.66 in 10.0 mi NW 28.8 mph 36.8 mph N/A   Clear
7:34 PM 71.6 °F 37.4 °F 29% 29.67 in 10.0 mi NW 25.3 mph 32.2 mph N/A   Clear
7:55 PM 69.8 °F 39.2 °F 33% 29.68 in 10.0 mi NW 24.2 mph 29.9 mph N/A   Clear
8:15 PM 69.8 °F 37.4 °F 31% 29.69 in 10.0 mi NW 28.8 mph 38.0 mph N/A   Clear
8:35 PM 69.8 °F 39.2 °F 33% 29.70 in 10.0 mi NNW 27.6 mph 38.0 mph N/A   Clear
8:55 PM 66.2 °F 37.4 °F 35% 29.72 in 10.0 mi NNW 20.7 mph 32.2 mph N/A   Clear
9:14 PM 66.2 °F 39.2 °F 37% 29.73 in 10.0 mi NNW 16.1 mph - N/A   Clear
9:35 PM 64.4 °F 39.2 °F 40% 29.74 in 10.0 mi North 16.1 mph - N/A   Clear
9:55 PM 62.6 °F 39.2 °F 42% 29.75 in 10.0 mi North 13.8 mph - N/A   Clear
10:14 PM 62.6 °F 39.2 °F 42% 29.77 in 10.0 mi NNW 9.2 mph - N/A   Clear
10:35 PM 60.8 °F 41.0 °F 48% 29.78 in 10.0 mi NNW 8.1 mph - N/A   Clear
10:55 PM 57.2 °F 41.0 °F 55% 29.78 in 10.0 mi NNW 5.8 mph - N/A   Clear
11:14 PM 57.2 °F 41.0 °F 55% 29.79 in 10.0 mi NNW 6.9 mph - N/A   Clear
11:35 PM 55.4 °F 41.0 °F 58% 29.79 in 10.0 mi NW 5.8 mph - N/A   Clear
11:55 PM 55.4 °F 41.0 °F 58% 29.80 in 10.0 mi WNW 3.5 mph - N/A   Clear